This is the latest recevied weather packets stored in our database for station/object WD4IXD. If no packets are shown the sender has not sent any weather packets the latest 10 day(s).
| Time | Temp. | Humidity | Pressure | Rain* | Wind** | Luminosity | Snow |
|---|---|---|---|---|---|---|---|
| 1777680004 | 16.11° C | 19% | 1019.5 hPa | 0 mm | - | 322 W/m² | - |
| 1777679715 | 16.67° C | 18% | 1019.5 hPa | 0 mm | - | 339 W/m² | - |
| 1777679404 | 16.67° C | 18% | 1019.5 hPa | 0 mm | - | 359 W/m² | - |
| 1777679115 | 16.67° C | 18% | 1019.5 hPa | 0 mm | - | 378 W/m² | - |
| 1777678804 | 17.22° C | 18% | 1019.5 hPa | 0 mm | - | 396 W/m² | - |
| 1777678515 | 17.22° C | 18% | 1019.5 hPa | 0 mm | - | 413 W/m² | - |
| 1777678204 | 17.22° C | 19% | 1019.5 hPa | 0 mm | - | 425 W/m² | - |
| 1777677915 | 16.67° C | 19% | 1019.4 hPa | 0 mm | - | 445 W/m² | - |
| 1777677604 | 16.67° C | 19% | 1019.3 hPa | 0 mm | - | 462 W/m² | - |
| 1777677315 | 16.67° C | 19% | 1019.3 hPa | 0 mm | - | 476 W/m² | - |
| 1777677004 | 16.67° C | 19% | 1019.3 hPa | 0 mm | - | 496 W/m² | - |
| 1777676715 | 16.67° C | 19% | 1019.3 hPa | 0 mm | - | 512 W/m² | - |
| 1777676415 | 16.67° C | 19% | 1019.3 hPa | 0 mm | - | 529 W/m² | - |
| 1777676104 | 16.67° C | 20% | 1019.3 hPa | 0 mm | - | 541 W/m² | - |
| 1777675804 | 16.67° C | 19% | 1019.4 hPa | 0 mm | - | 557 W/m² | - |
| 1777675515 | 16.67° C | 19% | 1019.4 hPa | 0 mm | - | 577 W/m² | - |
| 1777675204 | 16.67° C | 21% | 1019.3 hPa | 0 mm | - | 591 W/m² | - |
| 1777674915 | 17.78° C | 20% | 1019.3 hPa | 0 mm | - | 610 W/m² | - |
| 1777674605 | 17.22° C | 20% | 1019.3 hPa | 0 mm | - | 652 W/m² | - |
| 1777674316 | 17.22° C | 21% | 1019.3 hPa | 0 mm | - | 666 W/m² | - |
| 1777674005 | 16.67° C | 21% | 1019.5 hPa | 0 mm | - | 664 W/m² | - |
| 1777673716 | 16.67° C | 21% | 1019.5 hPa | 0 mm | - | 670 W/m² | - |
| 1777673415 | 16.67° C | 21% | 1019.6 hPa | 0 mm | - | 684 W/m² | - |
| 1777673104 | 16.11° C | 22% | 1019.6 hPa | 0 mm | - | 705 W/m² | - |
| 1777672815 | 16.67° C | 22% | 1019.6 hPa | 0 mm | - | 118 W/m² | - |
* Rain latest hour (hover to see other rain measurements)
** Current wind speed in m/s (hover to see current wind gust speed)